Tracking 30922 objects as of 2-Jul-2025
HD Live streaming from Space Station
objects crossing your sky now

METEOR 2-8 DEB

Track METEOR 2-8 DEB now!
10-day predictions


NORAD ID: 36338
Int'l Code: 1982-025Y
Perigee: 792.0 km
Apogee: 822.6 km
Inclination: 82.5 °
Period: 100.9 minutes
Semi major axis: 7178 km
RCS: 0.0162 m2 (small)
Launch date: March 25, 1982
Source: Commonwealth of Independent States (former USSR) (CIS)
Launch site: PLESETSK MISSILE AND SPACE COMPLEX (PKMTR)

Note: This is SATELLITE DEBRIS
Your satellite tracking list
Your tracking list is empty




NASA's NSSDC Master Catalog

Two Line Element Set (TLE):
1 36338U 82025Y   25180.54104671  .00000644  00000-0  25521-3 0  9996
2 36338  82.5205 116.8047 0021311  39.6615 320.6123 14.27486397 55381
Source of the keplerian elements: AFSPC